Meteo Giornale » Osservazioni meteo Canada » Charlottetown P E I
ore: 01:00 - Osservazioni Meteo Charlottetown P E I
Lat. 46° 17' N Lon. 63° 8' W Alt. 48 metri s.l.m.
12 °C
Nuvoloso
Temp. 24 Ore
11 °C
18 °C
Nord
5.5 Km/h
Dew point 11 °C
Umidità 93 %
Visibilità 24 Km
Il sole sorge alle ore 06:33
Il sole tramonta alle ore 19:51
| Data e Ora | Cielo e Fenomeni | T °C | DP °C | Um. % | Pres. hPa | Vis. km | Vento km/h | |
|---|---|---|---|---|---|---|---|---|
| Oggi h: 01:00 | Nuvoloso | 12 | 11 | 93 | 1016 | 24 | N 5.5 | |
| Oggi h: 00:00 | Nuvoloso | 11 | 11 | 100 | 1016 | 24 | N 3.7 | |
| Ieri h: 23:00 | Nuvoloso | 12 | 11 | 93 | 1016 | 24 | N 3.7 | |
| Ieri h: 22:00 | Nuvoloso | 12 | 11 | 93 | 1016 | 24 | N 0 | |
| Ieri h: 21:00 | Nuvoloso | 13 | 12 | 93 | 1016 | 24 | N 3.7 | |
| Ieri h: 20:00 | Molto Nuvoloso | 15 | 12 | 82 | 1015 | 24 | N 0 | |
| Ieri h: 19:00 | Poco Nuvoloso | 17 | 11 | 67 | 1015 | 24 | N 0 | |
| Ieri h: 18:00 | Poco Nuvoloso | 17 | 11 | 67 | 1015 | 24 | N/NO 11.1 | |
| Ieri h: 17:00 | Nuvoloso | 18 | 11 | 63 | 1015 | 24 | N/NO 16.7 | |
| Ieri h: 16:00 | Molto Nuvoloso | 18 | 11 | 63 | 1014 | 24 | N/NO 20.3 | |
| Ieri h: 15:00 | Molto Nuvoloso | 18 | 11 | 63 | 1014 | 24 | N/NO 22.2 | |
| Ieri h: 14:00 | Molto Nuvoloso | 17 | 11 | 67 | 1013 | 24 | N/NO 18.5 | |
| Ieri h: 13:00 | Molto Nuvoloso | 18 | 12 | 67 | 1013 | 24 | NO 20.3 | |
| Ieri h: 12:00 | Molto Nuvoloso | 17 | 11 | 67 | 1013 | 24 | NO 18.5 | |
| Ieri h: 11:00 | Molto Nuvoloso | 18 | 12 | 67 | 1012 | 24 | N/NO 24 | |
| Ieri h: 10:00 | Molto Nuvoloso | 18 | 12 | 67 | 1012 | 24 | NO 22.2 | |
| Ieri h: 09:00 | Poco Nuvoloso | 16 | 13 | 82 | 1011 | 24 | O/NO 14.8 | |
| Ieri h: 08:00 | Poco Nuvoloso | 15 | 13 | 87 | 1011 | 24 | O/NO 13 | |
| Ieri h: 07:00 | Nuvoloso | 14 | 12 | 87 | 1011 | 24 | O 13 | |
| Ieri h: 06:00 | Nuvoloso | 14 | 12 | 87 | 1010 | 24 | O/NO 14.8 | |
| Ieri h: 05:00 | Coperto | 15 | 13 | 87 | 1010 | 24 | O 13 | |
| Ieri h: 04:00 | Coperto | 15 | 14 | 93 | 1010 | 24 | O 13 | |
| Ieri h: 03:29 | Coperto | 15 | 14 | 93 | 1009 | 24 | O 9.3 | |
| Ieri h: 03:00 | Pioggia | 15 | 14 | 93 | 1010 | 24 | O 11.1 | |
| Ieri h: 02:00 | Pioggia | 15 | 13 | 87 | 1010 | 24 | O/SO 11.1 | |



